| time (UTC) | temp C | wind direction | speed KPH | gust KPH | rain 1hr cm | rain 24hr cm | rain mn cm | humidity % | barometer mb |
| 20260507161545 | 15 | 249 | 4.8 | 14.5 | 0.00 | 0.15 | 0.00 | 79 | 1014.6 |
| 20260507160044 | 15 | 224 | 9.7 | 17.7 | 0.00 | 0.15 | 0.00 | 79 | 1015.0 |
| 20260507154544 | 16 | 189 | 11.3 | 25.7 | 0.00 | 0.15 | 0.00 | 78 | 1014.6 |
| 20260507153042 | 17 | 241 | 11.3 | 27.4 | 0.00 | 0.15 | 0.00 | 72 | 1014.5 |
| 20260507151543 | 17 | 254 | 12.9 | 25.7 | 0.00 | 0.15 | 0.00 | 68 | 1014.2 |
| 20260507150038 | 17 | 209 | 8.0 | 25.7 | 0.00 | 0.15 | 0.00 | 60 | 1013.8 |
| 20260507144538 | 17 | 219 | 9.7 | 27.4 | 0.00 | 0.15 | 0.00 | 62 | 1013.7 |
| 20260507143044 | 17 | 188 | 17.7 | 27.4 | 0.00 | 0.15 | 0.00 | 69 | 1013.7 |
| 20260507141543 | 17 | 203 | 14.5 | 24.1 | 0.00 | 0.15 | 0.00 | 72 | 1013.7 |
| 20260507140056 | 17 | 202 | 16.1 | 24.1 | 0.00 | 0.15 | 0.00 | 74 | 1013.9 |
| 20260507134541 | 18 | 214 | 12.9 | 19.3 | 0.00 | 0.15 | 0.00 | 77 | 1014.0 |
| 20260507133040 | 18 | 239 | 12.9 | 20.9 | 0.00 | 0.15 | 0.00 | 77 | 1013.9 |
| 20260507131547 | 17 | 235 | 12.9 | 22.5 | 0.00 | 0.15 | 0.00 | 78 | 1013.9 |
| 20260507130043 | 18 | 245 | 16.1 | 24.1 | 0.00 | 0.15 | 0.00 | 78 | 1014.1 |
| 20260507124544 | 18 | 243 | 12.9 | 24.1 | 0.00 | 0.18 | 0.00 | 78 | 1014.2 |
| 20260507123043 | 17 | 246 | 16.1 | 27.4 | 0.00 | 0.18 | 0.00 | 77 | 1014.0 |
| 20260507121540 | 17 | 243 | 16.1 | 24.1 | 0.00 | 0.18 | 0.00 | 77 | 1014.1 |
| 20260507120039 | 17 | 231 | 14.5 | 25.7 | 0.00 | 0.18 | 0.00 | 76 | 1014.1 |
| 20260507114538 | 17 | 246 | 16.1 | 25.7 | 0.00 | 0.18 | 0.00 | 76 | 1014.2 |
| 20260507113044 | 17 | 209 | 12.9 | 25.7 | 0.00 | 0.18 | 0.00 | 76 | 1014.3 |
| 20260507111547 | 17 | 219 | 11.3 | 25.7 | 0.00 | 0.18 | 0.00 | 77 | 1014.3 |
| 20260507110049 | 17 | 257 | 14.5 | 25.7 | 0.00 | 0.18 | 0.00 | 76 | 1014.5 |
| 20260507104541 | 16 | 205 | 12.9 | 27.4 | 0.00 | 0.25 | 0.00 | 77 | 1014.5 |
| 20260507103039 | 17 | 189 | 12.9 | 24.1 | 0.00 | 0.25 | 0.00 | 77 | 1014.7 |
| 20260507101600 | 16 | 206 | 14.5 | 30.6 | 0.00 | 0.25 | 0.00 | 78 | 1014.7 |
| 20260507100045 | 17 | 226 | 19.3 | 32.2 | 0.00 | 0.25 | 0.00 | 78 | 1014.7 |
| 20260507094554 | 17 | 216 | 12.9 | 20.9 | 0.00 | 0.56 | 0.00 | 79 | 1014.5 |
| 20260507093042 | 17 | 233 | 14.5 | 25.7 | 0.00 | 0.56 | 0.00 | 81 | 1014.4 |
| 20260507091553 | 16 | 247 | 16.1 | 27.4 | 0.00 | 0.56 | 0.00 | 81 | 1014.4 |
| 20260507090051 | 16 | 280 | 12.9 | 29.0 | 0.00 | 0.56 | 0.00 | 81 | 1014.3 |
| 20260507084538 | 16 | 247 | 16.1 | 24.1 | 0.00 | 0.97 | 0.00 | 82 | 1014.3 |
| 20260507083045 | 16 | 218 | 6.4 | 24.1 | 0.00 | 0.97 | 0.00 | 83 | 1014.3 |
| 20260507081553 | 16 | 168 | 6.4 | 25.7 | 0.00 | 0.97 | 0.00 | 86 | 1014.1 |
| 20260507080042 | 15 | 193 | 8.0 | 24.1 | 0.00 | 0.97 | 0.00 | 86 | 1014.0 |
| 20260507074541 | 15 | 181 | 14.5 | 24.1 | 0.00 | 1.30 | 0.00 | 86 | 1013.8 |
| 20260507073054 | 15 | 175 | 9.7 | 24.1 | 0.00 | 1.30 | 0.00 | 86 | 1013.8 |
| 20260507071538 | 15 | 0 | 14.5 | 32.2 | 0.00 | 1.30 | 0.00 | 88 | 1013.7 |
| 20260507070126 | 15 | 173 | 9.7 | 17.7 | 0.00 | 1.30 | 0.00 | 88 | 1013.5 |
| 20260507064550 | 15 | 210 | 6.4 | 19.3 | 0.00 | 1.57 | 0.00 | 89 | 1013.4 |
| 20260507063044 | 15 | 190 | 8.0 | 19.3 | 0.00 | 1.57 | 0.00 | 91 | 1013.2 |
| 20260507061543 | 14 | 179 | 4.8 | 19.3 | 0.00 | 1.57 | 0.00 | 91 | 1013.3 |
| 20260507060043 | 14 | 182 | 6.4 | 12.9 | 0.00 | 1.57 | 0.00 | 92 | 1013.2 |
| 20260507054546 | 14 | 204 | 4.8 | 14.5 | 0.00 | 1.57 | 0.00 | 92 | 1013.2 |
| 20260507053042 | 13 | 172 | 8.0 | 14.5 | 0.00 | 1.57 | 0.00 | 93 | 1012.9 |
| 20260507051539 | 13 | 145 | 1.6 | 14.5 | 0.00 | 1.57 | 0.00 | 93 | 1012.9 |
| 20260507050044 | 13 | 158 | 6.4 | 16.1 | 0.00 | 1.57 | 0.00 | 93 | 1012.7 |
| 20260507044545 | 13 | 146 | 8.0 | 12.9 | 0.00 | 1.57 | 0.00 | 93 | 1012.5 |
| 20260507043041 | 13 | 167 | 8.0 | 16.1 | 0.00 | 1.57 | 0.00 | 93 | 1012.3 |
| 20260507041538 | 13 | 166 | 8.0 | 14.5 | 0.00 | 1.57 | 0.00 | 93 | 1012.3 |
| 20260507040049 | 13 | 175 | 8.0 | 11.3 | 0.00 | 1.57 | 0.00 | 93 | 1012.1 |
| 20260507034547 | 13 | 137 | 6.4 | 14.5 | 0.00 | 1.57 | 0.00 | 93 | 1012.0 |
| 20260507033044 | 13 | 161 | 8.0 | 19.3 | 0.00 | 1.57 | 0.00 | 93 | 1011.9 |
| 20260507031542 | 13 | 183 | 6.4 | 14.5 | 0.00 | 1.57 | 0.00 | 93 | 1012.1 |
| 20260507030047 | 13 | 209 | 4.8 | 14.5 | 0.00 | 1.57 | 0.00 | 93 | 1012.1 |
| 20260507024545 | 13 | 181 | 4.8 | 16.1 | 0.00 | 1.57 | 0.00 | 93 | 1012.0 |
| 20260507023037 | 13 | 183 | 1.6 | 14.5 | 0.00 | 1.57 | 0.00 | 93 | 1012.0 |
| 20260507021619 | 13 | 204 | 3.2 | 16.1 | 0.00 | 1.57 | 0.00 | 93 | 1012.1 |
| 20260507020040 | 13 | 195 | 3.2 | 19.3 | 0.00 | 1.57 | 0.00 | 92 | 1012.0 |
| 20260507014552 | 13 | 168 | 4.8 | 19.3 | 0.00 | 1.57 | 0.00 | 92 | 1012.1 |
| 20260507013047 | 13 | 330 | 4.8 | 22.5 | 0.00 | 1.57 | 0.00 | 92 | 1012.0 |
| 20260507011545 | 13 | 247 | 6.4 | 20.9 | 0.00 | 1.57 | 0.00 | 92 | 1012.0 |
| 20260507010050 | 13 | 154 | 4.8 | 20.9 | 0.00 | 1.57 | 0.00 | 92 | 1012.1 |
| 20260507004543 | 13 | 268 | 4.8 | 25.7 | 0.00 | 1.57 | 0.00 | 92 | 1011.9 |
| 20260507003039 | 13 | 165 | 4.8 | 17.7 | 0.00 | 1.57 | 0.00 | 92 | 1012.1 |
| 20260507001550 | 13 | 150 | 4.8 | 17.7 | 0.00 | 1.57 | 0.00 | 91 | 1011.9 |
| 20260507000045 | 13 | 146 | 8.0 | 20.9 | 0.00 | 1.57 | 0.00 | 92 | 1012.1 |
| 20260506234544 | 13 | 168 | 11.3 | 24.1 | 0.00 | 1.57 | 0.00 | 91 | 1012.3 |
| 20260506233044 | 13 | 142 | 11.3 | 22.5 | 0.00 | 1.57 | 0.00 | 90 | 1012.4 |
| 20260506231542 | 13 | 166 | 11.3 | 22.5 | 0.00 | 1.57 | 0.00 | 91 | 1012.5 |
| 20260506230040 | 13 | 207 | 14.5 | 22.5 | 0.00 | 1.57 | 0.00 | 91 | 1012.5 |
| 20260506224538 | 13 | 187 | 9.7 | 16.1 | 0.00 | 1.57 | 0.00 | 91 | 1012.6 |
| 20260506223046 | 13 | 145 | 6.4 | 14.5 | 0.00 | 1.57 | 0.00 | 91 | 1012.8 |
| 20260506221545 | 13 | 149 | 4.8 | 12.9 | 0.00 | 1.57 | 0.00 | 91 | 1012.6 |
| 20260506220044 | 13 | 139 | 6.4 | 14.5 | 0.00 | 1.57 | 0.00 | 91 | 1012.4 |
| 20260506214545 | 12 | 168 | 9.7 | 19.3 | 0.00 | 1.57 | 1.57 | 90 | 1012.4 |
| 20260506213040 | 12 | 208 | 11.3 | 19.3 | 0.00 | 1.57 | 1.57 | 90 | 1012.1 |
| 20260506211538 | 12 | 162 | 9.7 | 16.1 | 0.00 | 1.57 | 1.57 | 90 | 1012.3 |
| 20260506210050 | 12 | 222 | 9.7 | 17.7 | 0.00 | 1.57 | 1.57 | 91 | 1012.2 |
| 20260506204544 | 13 | 153 | 8.0 | 20.9 | 0.00 | 1.57 | 1.57 | 91 | 1012.3 |
| 20260506203050 | 13 | 170 | 8.0 | 17.7 | 0.00 | 1.57 | 1.57 | 91 | 1012.2 |
| 20260506201600 | 13 | 203 | 9.7 | 29.0 | 0.00 | 1.57 | 1.57 | 91 | 1012.1 |
| 20260506200048 | 13 | 164 | 9.7 | 29.0 | 0.00 | 1.57 | 1.57 | 91 | 1012.1 |
| 20260506194548 | 13 | 185 | 9.7 | 22.5 | 0.00 | 1.57 | 1.57 | 92 | 1012.0 |
| 20260506193050 | 13 | 190 | 6.4 | 32.2 | 0.00 | 1.57 | 1.57 | 92 | 1011.8 |
| 20260506191544 | 13 | 191 | 11.3 | 27.4 | 0.00 | 1.57 | 1.57 | 92 | 1011.5 |
| 20260506190043 | 14 | 157 | 11.3 | 33.8 | 0.00 | 1.57 | 1.57 | 92 | 1011.2 |
| 20260506184549 | 14 | 137 | 11.3 | 24.1 | 0.00 | 1.57 | 1.57 | 92 | 1011.0 |
| 20260506183040 | 14 | 189 | 6.4 | 27.4 | 0.03 | 1.57 | 1.57 | 92 | 1011.1 |
| 20260506181540 | 14 | 183 | 6.4 | 24.1 | 0.05 | 1.57 | 1.57 | 92 | 1011.2 |
| 20260506180045 | 14 | 177 | 8.0 | 22.5 | 0.08 | 1.57 | 1.57 | 92 | 1011.1 |
| 20260506174542 | 14 | 123 | 8.0 | 19.3 | 0.13 | 1.57 | 1.57 | 92 | 1011.0 |
| 20260506173059 | 15 | 210 | 8.0 | 22.5 | 0.10 | 1.55 | 1.55 | 91 | 1010.8 |
| 20260506171551 | 15 | 148 | 9.7 | 35.4 | 0.08 | 1.52 | 1.52 | 91 | 1011.0 |
| 20260506170040 | 15 | 237 | 22.5 | 37.0 | 0.03 | 1.47 | 1.47 | 89 | 1010.6 |
| 20260506164544 | 15 | 155 | 14.5 | 32.2 | 0.00 | 1.42 | 1.42 | 88 | 1009.7 |
| 20260506163059 | 16 | 176 | 8.0 | 29.0 | 0.00 | 1.42 | 1.42 | 87 | 1010.4 |